Regional Weather Roundup
Issued by NWS Sterling, VA

Home | Current Version | Previous Version | Text Only | Print | Product List | Glossary Off
Versions: 1 2 3 4 5 6 7 8 9 10 11 12 13 14 15 16 17 18 19 20 21 22 23 24 25 26 27 28 29 30 31 32 33 34 35 36 37 38 39 40 41 42 43 44 45 46 47 48 49 50

000
ASUS41 KLWX 011410
RWRLWX

REGIONAL WEATHER ROUNDUP
NATIONAL WEATHER SERVICE BALTIMORE MD/WASHINGTON DC
1000 AM EDT SAT OCT 01 2016

Note: "FAIR" indicates few or no clouds below 12,000 feet
with no significant weather and/or obstructions to visibility.
 TC=TEMPERATURE CELSIUS

 * =Non NWS site. Station does not report precipitation (e.g. rain,
    snow, etc.), thunder, or fog.

DCZ001-MDZ009-015-VAZ040>042-051-053>054-011500-
WASHINGTON METRO

CITY           SKY/WX    TMP DP  RH WIND       PRES   REMARKS
WASHINGTON NAT DRIZZLE   64  64 100 NE8       30.13S FOG
DULLES         DRIZZLE   62  60  93 NE8       30.13R
ANDREWS AFB    DRIZZLE   64  63  94 E7        30.12R
FT BELVOIR     CLOUDY    64  63  94 VRB3      30.11S
QUANTICO       CLOUDY    67  64  90 NE8       30.12R
COLLEGE PARK*  CLOUDY    61  59  94 CALM      30.13R
LEESBURG*      LGT RAIN  61  61 100 N5        30.15S
MANASSAS*      LGT RAIN  63  63 100 NE5       30.13S
GAITHERSBURG*  CLOUDY    61 N/A N/A NE3       30.17F

$$

MDZ006>007-011-014-011500-
BALTIMORE METRO

CITY           SKY/WX    TMP DP  RH WIND       PRES   REMARKS
BWI AIRPORT    CLOUDY    61  59  93 NE13      30.13S FOG
MD SCIENCE CTR   N/A     61  58  90 MISG      30.15S
MARTIN STATE   CLOUDY    63  63 100 NE8       30.16S
ANNAPOLIS      CLOUDY    65  63  93 E9G16     30.13S FOG
FORT MEADE*    CLOUDY    61  59  94 NE7       30.15S

$$

MDZ012-015-019>023-011500-
MARYLAND EASTERN SHORE

CITY           SKY/WX    TMP DP  RH WIND       PRES   REMARKS
OCEAN CITY     CLOUDY    68  68 100 E13       30.12S
SALISBURY      CLOUDY    68  68 100 NE13      30.11F FOG
BAY BRIDGE AP* CLOUDY    64  63  94 MISG      30.12F FOG
EASTON*        DRIZZLE   66  64  94 E13       30.16

$$

MDZ017>025-011500-
SOUTHERN MARYLAND

CITY           SKY/WX    TMP DP  RH WIND       PRES   REMARKS
PATUXENT RIVER RAIN      68  67  96 E14G22    30.09R FOG
ST INIGOES     LGT RAIN  70  69  97 E6G16     30.08S
LEONARDTOWN*   CLOUDY    68  64  88 E8        30.11S

$$

MDZ003>005-011500-
NORTH CENTRAL MARYLAND

CITY           SKY/WX    TMP DP  RH WIND       PRES   REMARKS
FREDERICK*     LGT RAIN  61  61 100 N7        30.18S
HAGERSTOWN APT LGT RAIN  58  55  90 N7        30.15F FOG

$$

MDZ501>502-011500-
WESTERN MARYLAND

CITY           SKY/WX    TMP DP  RH WIND       PRES   REMARKS
OAKLAND*       FOG       52  52 100 SE10G16   30.14F VSB 3/4
CUMBERLAND*    CLOUDY    59  59 100 CALM      30.19S

$$

VAZ025>031-011500-
SHENANDOAH VALLEY

CITY           SKY/WX    TMP DP  RH WIND       PRES   REMARKS
WINCHESTER*    CLOUDY    59  57  94 N5        30.15S FOG
FRONT ROYAL*   CLOUDY    59  59 100 NE3       30.13S
LURAY*         CLOUDY   N/A N/A N/A NE8       30.13S
NEW MARKET*    CLOUDY   N/A N/A N/A N6        30.13S
STAUNTON*      CLOUDY    60  58  92 NE6       30.15R
WAYNESBORO*    CLOUDY    59  58  96 CALM      30.14R

$$

WVZ021-048>050-054>055-011500-
EASTERN WEST VIRGINIA PANHANDLE

CITY           SKY/WX    TMP DP  RH WIND       PRES   REMARKS
MARTINSBURG    CLOUDY    58  56  93 N8        30.15R FOG
PETERSBURG*    CLOUDY    60  59  96 CALM      30.15R FOG

$$

VAZ036>039-050-011500-
CENTRAL FOOTHILLS

CITY           SKY/WX    TMP DP  RH WIND       PRES   REMARKS
CHARLOTTESVILL CLOUDY    64  61  90 NE10      30.11R
CULPEPER*      CLOUDY    64  63  97 CALM      30.13R
ORANGE*          N/A     64  64 100 N6        30.13R
GORDONSVILLE*  CLOUDY    63  63 100 NE8       30.11R
WARRENTON*     CLOUDY    64  59  86 N7        30.12R HAZE

$$

VAZ055>057-011500-
NORTH AND CENTRAL PIEDMONT

CITY           SKY/WX    TMP DP  RH WIND       PRES   REMARKS
FREDERICKSBRG* CLOUDY    66  66 100 N8        30.09S
STAFFORD*      CLOUDY    65  65 100 N5        30.14S FOG

$$

NCZ024-NYZ072-PAZ021-071-VAZ022-071-011500-
OTHER REGIONAL OBSERVATIONS

CITY           SKY/WX    TMP DP  RH WIND       PRES   REMARKS
NEW YORK CITY  CLOUDY    59  54  83 NE10G18   30.25S
PHILADELPHIA   CLOUDY    60  57  89 NE12      30.19S
PITTSBURGH     PTSUNNY   61  58  90 SE7       30.10S
ROANOKE        CLOUDY    66  61  84 N3        30.13R
RICHMOND       CLOUDY    72  70  93 N6        30.07R
RALEIGH        PTSUNNY   69  66  90 CALM      30.08S

$$

ANZ530>537-011500-
MARINE OBSERVATIONS

STATION/POSITION TIME  TEMP    WIND        PRES
                       AIR SEA DIR/SP/G
                 (UTC) (F)     (DEG/KT/KT) (MB)
THOMAS PT LIGHT  1400   65 70   70/ 15/ 17 1021.1F
BALT KEY BRIDGE  1342   61      50/ 12/ 15 1020.5F
COVE POINT       1342   68     120/ 15/ 19 1019.7R
LEWISETTA        1342   72 72  120/ 16/ 19 1018.2R
SOLOMONS ISLAND  1342   69 73  100/ 18/ 20   N/A
PINEY POINT      1348          120/ 11/ 12   N/A

$$




USA.gov is the U.S. government's official web portal to all federal, state and local government web resources and services.